Home   Weather   Perpignan   Past weeks

Flag for France Past Weather in Perpignan, Languedoc-Roussillon, France — Yesterday and Last 2 Weeks

57 °F

Mostly cloudy.

Feels Like: 57 °F
Forecast: 63 / 70 °F
Wind: No wind

Location: Perpignan Airport

Current Time: Oct 23, 2016 at 3:27:22 AM

Latest Report: Oct 23, 2016 at 3:00 AM

Visibility: 6 mi

Pressure: 29.77 "Hg

Humidity: 94%

Dew Point: 55 °F

Location of PerpignanLocation

Past Weather in Perpignan — Graph


Perpignan Temperature Yesterday

Maximum temperature yesterday: 59 °F (at 2:00 PM)
Minimum temperature yesterday: 43 °F (at 4:00 AM)
Average temperature yesterday: 52 °F

High & Low Weather Summary for the Past Weeks

High73 °F (Oct 18, 2:30 PM)100% (Oct 13, 10:30 PM)30.27 "Hg (Oct 13, 10:30 PM)
Low43 °F (Oct 22, 4:00 AM)19% (Oct 11, 4:00 PM)29.47 "Hg (Oct 14, 5:00 AM)
Average61 °F62%29.98 "Hg
* Reported Oct 8 2:00 AM — Oct 23 2:00 AM, Perpignan, Weather by CustomWeather, © 2016

Note: Actual official high and low records may vary slightly from our data, if they occured in-between our weather recording intervals... More about our weather records


Perpignan Weather History for the Previous 24 Hours

Scroll right to see more
Time TempWeatherWind HumidityBarometerVisibility
2:00 AM
Sun, Oct 23
55 °FOvercast.1 mph94%29.77 "HgN/A
1:30 AM55 °FMostly cloudy.1 mph94%29.77 "HgN/A
1:00 AM55 °FMostly cloudy.1 mph100%29.77 "HgN/A
12:30 AM55 °FMostly cloudy.No wind94%29.80 "HgN/A
12:00 AM55 °FMostly cloudy.No wind94%29.80 "HgN/A
11:30 PM
Sat, Oct 22
55 °FLow clouds.2 mph94%29.80 "HgN/A
11:00 PM55 °FMostly cloudy.No wind94%29.80 "HgN/A
10:30 PM55 °FLow clouds.2 mph94%29.83 "HgN/A
10:00 PM55 °FLow clouds.5 mph94%29.83 "HgN/A
9:30 PM55 °FLow clouds.5 mph100%29.83 "HgN/A
9:00 PM57 °FLow clouds.3 mph94%29.83 "HgN/A
8:30 PM57 °FLight rain. Low clouds.2 mph94%29.83 "Hg4 mi
8:00 PM57 °FLight rain. Fog.7 mph94%29.83 "Hg2 mi
7:30 PM57 °FDrizzle. Fog.7 mph100%29.83 "Hg2 mi
7:00 PM57 °FDrizzle. Fog.3 mph100%29.83 "Hg2 mi
6:30 PM57 °FLight rain. Fog.3 mph94%29.83 "Hg1 mi
6:00 PM57 °FDrizzle. Fog.3 mph94%29.83 "Hg1 mi
5:30 PM57 °FLight rain. Fog.2 mph94%29.83 "Hg2 mi
5:00 PM57 °FLight rain. Low clouds.6 mph88%29.86 "Hg4 mi
4:30 PM59 °FOvercast.6 mph77%29.86 "HgN/A
4:00 PM57 °FMostly cloudy.6 mph77%29.86 "HgN/A
3:30 PM57 °FOvercast.6 mph77%29.86 "HgN/A
3:00 PM57 °FOvercast.5 mph72%29.86 "HgN/A
2:30 PM57 °FOvercast.3 mph72%29.86 "HgN/A
2:00 PM59 °FOvercast.5 mph68%29.89 "HgN/A
1:30 PM57 °FOvercast.2 mph72%29.89 "HgN/A
1:00 PM57 °FOvercast.3 mph72%29.89 "HgN/A
12:30 PM55 °FOvercast.3 mph72%29.89 "HgN/A
12:00 PM55 °FMore clouds than sun.No wind72%29.92 "HgN/A
11:30 AM54 °FOvercast.No wind72%29.92 "HgN/A
11:00 AM54 °FOvercast.2 mph72%29.92 "HgN/A
10:30 AM54 °FOvercast.1 mph67%29.92 "HgN/A
10:00 AM52 °FOvercast.1 mph77%29.92 "HgN/A
9:30 AM52 °FOvercast.No wind72%29.92 "HgN/A
9:00 AM50 °FOvercast.1 mph76%29.92 "HgN/A
8:30 AM48 °FMostly cloudy.3 mph82%29.92 "HgN/A
8:00 AM48 °FMostly cloudy.2 mph82%29.92 "HgN/A
7:30 AM46 °FOvercast.2 mph82%29.92 "HgN/A
7:00 AM46 °FOvercast.2 mph82%29.92 "HgN/A
6:30 AM43 °FPassing clouds.No wind87%29.92 "HgN/A
6:00 AM43 °FPassing clouds.2 mph87%29.92 "HgN/A
5:30 AM43 °FPassing clouds.5 mph87%29.92 "HgN/A
5:00 AM43 °FClear.No wind87%29.92 "Hg10 mi
4:30 AM45 °FClear.3 mph81%29.92 "Hg10 mi
4:00 AM43 °FClear.3 mph87%29.92 "Hg10 mi
3:30 AM45 °FClear.3 mph81%29.95 "Hg10 mi
3:00 AM45 °FClear.2 mph81%29.95 "Hg10 mi
Weather by CustomWeather, © 2016

See weather overviewHow to use our weather pages